RH
90 101 87 59 62 81 92 92 89 93 93 93 89 80 72 67 65 65 77 91 90 81 73 66 59 53 56 65 68 65 54 40 47 56 49 43 38 34 34 36 40 43 44 41 39 40 37 41 56 73 91 97
88 93 90 65 45 49 74 93 91 89 89 87 87 89 88 84 78 68 69 82 93 94 88 78 71 69 70 73 67 60 55 45 46 54 52 49 45 40 36 36 38 39 41 40 38 41 38 34 34 41 57 72
94 87 81 70 49 34 55 88 92 84 83 80 77 77 79 82 83 83 84 87 95 102 101 94 85 82 80 75 67 58 52 45 44 47 46 44 47 49 44 39 38 39 41 43 45 45 41 36 33 33 39 50
95 85 68 55 46 37 49 83 98 89 80 74 69 67 65 63 59 60 71 80 85 90 92 89 81 74 70 66 62 57 51 45 41 40 40 38 42 54 58 52 47 43 41 45 50 50 45 40 37 39 45 51
90 91 75 55 48 43 44 68 94 100 95 84 73 66 59 54 46 38 45 62 75 83 84 81 75 69 66 64 60 54 47 42 38 36 36 35 38 53 65 62 56 49 45 49 54 52 51 52 52 52 54 56
54 74 79 72 64 56 47 53 70 82 86 81 72 63 56 51 44 36 38 50 63 74 80 79 75 71 69 66 59 50 43 39 37 35 34 35 40 55 68 66 59 52 46 47 51 51 50 54 58 60 59 57
18 29 42 54 64 69 64 58 59 66 69 67 61 57 57 57 51 44 44 48 54 61 68 71 70 68 69 65 57 47 40 36 36 36 34 35 42 58 74 74 64 58 53 49 48 49 51 54 59 61 57 51
13 13 15 22 34 49 62 68 70 73 79 80 77 75 75 73 65 55 50 49 50 54 58 60 62 64 64 60 52 43 36 35 37 39 37 35 39 52 72 82 78 70 64 58 54 53 53 52 52 50 45 37
15 14 15 17 19 24 33 45 56 65 77 83 84 86 91 93 87 76 65 57 51 48 46 47 50 54 55 51 45 39 37 38 42 45 44 39 36 39 53 73 81 79 73 66 59 52 46 40 36 33 31 28
21 18 16 17 20 24 26 28 32 38 45 51 53 57 70 85 95 95 91 87 78 65 58 57 60 61 58 52 45 43 47 53 58 60 58 51 43 36 35 43 51 55 56 53 47 40 34 29 26 25 25 24
26 25 22 20 20 23 29 34 36 36 36 37 39 44 53 65 77 88 96 102 101 93 87 84 83 84 80 72 66 64 69 74 74 71 67 62 55 49 45 42 40 40 39 38 36 33 30 28 28 28 28 29
30 29 28 26 24 23 26 31 38 43 46 47 48 51 55 59 65 73 81 90 97 98 95 90 82 80 80 79 78 78 80 79 74 69 65 64 63 61 59 58 56 54 51 47 45 43 42 41 42 43 44 44
33 33 33 32 30 28 27 28 32 38 44 49 54 57 60 63 66 69 73 76 82 87 90 88 81 74 70 68 67 68 67 65 61 58 59 60 62 64 64 65 67 67 66 64 63 62 61 61 61 62 63 63
38 37 36 36 35 33 31 30 30 31 34 38 44 50 57 63 67 72 74 74 75 77 81 83 82 79 76 72 69 67 64 60 58 57 57 58 60 62 64 67 69 71 73 74 76 77 77 78 78 80 81 82
41 40 38 37 37 36 35 34 33 32 32 32 33 36 41 48 55 62 68 72 74 75 77 78 79 80 79 77 76 75 73 71 70 69 68 68 68 69 71 72 73 75 77 79 82 84 85 86 86 87 89 90
39 38 37 36 36 36 36 36 35 34 34 33 33 33 33 35 38 42 47 53 57 62 67 71 76 79 80 81 82 82 83 83 82 81 80 80 81 82 83 84 84 84 84 85 86 86 86 85 84 83 82 82
36 36 36 35 35 35 36 37 37 37 36 35 35 34 34 33 33 33 34 36 38 40 42 46 52 57 63 69 74 78 82 85 86 86 86 86 87 88 89 89 89 88 87 86 85 83 82 79 78 76 74 73
32 33 34 35 35 35 36 36 37 37 37 37 36 35 35 34 34 34 33 33 33 32 32 32 32 34 37 41 46 53 59 65 71 75 78 80 82 83 83 83 82 81 80 80 79 77 76 74 72 71 70 69
29 29 30 31 32 34 35 35 36 37 37 37 36 36 35 34 34 34 33 32 31 31 31 31 31 30 29 29 28 30 33 37 42 48 53 58 62 65 66 68 68 69 69 70 70 70 69 67 66 64 62 61
28 27 27 27 28 29 31 32 33 34 35 35 35 35 35 34 33 33 33 32 30 29 29 28 29 30 30 31 30 28 27 26 26 27 30 33 36 39 41 44 46 47 49 50 51 51 51 49 48 45 43 41
28 26 25 24 24 25 26 28 30 31 31 31 32 32 32 32 32 32 31 31 31 30 29 28 27 27 28 30 31 32 32 31 30 29 27 27 26 27 27 28 28 29 30 30 31 30 30 29 28 27 26 25
28 26 25 23 22 22 22 23 25 26 27 27 27 27 27 28 29 30 30 29 29 29 29 29 28 28 27 28 29 30 31 32 33 33 32 32 30 29 28 28 27 26 26 26 25 25 25 24 24 24 23 23
27 25 24 23 22 22 21 21 22 23 24 24 25 24 24 24 25 26 27 27 27 27 27 27 27 27 27 27 27 28 29 29 30 31 32 33 33 33 32 31 30 29 29 28 28 27 27 27 27 27 26 26
24 24 23 23 22 22 21 21 21 21 22 23 23 23 23 23 23 24 25 25 25 25 25 25 25 25 25 26 26 27 27 28 29 30 31 32 32 33 33 33 33 32 32 31 31 31 30 30 29 29 29 28
24 24 24 23 23 23 23 23 24 23 24 23 23 23 23 23 24 24 25 25 25 25 25 24 24 25 25 25 25 26 26 27 28 29 30 31 31 32 32 33 33 33 33 32 32 32 32 31 31 30 30 29
26 26 26 26 25 25 26 26 26 26 26 25 25 25 25 25 25 25 25 25 25 25 25 25 25 25 25 25 26 26 26 26 27 28 29 29 30 30 30 31 31 31 31 31 31 31 30 30 29 29 28 28
29 29 28 27 27 27 27 27 26 26 26 25 25 25 25 25 25 25 25 25 25 24 24 24 24 24 24 24 25 25 25 25 26 26 27 27 28 28 28 28 28 29 29 28 28 28 27 27 26 26 25 25
30 30 30 29 29 28 28 27 27 26 25 25 25 25 25 24 24 24 24 24 24 24 24 24 23 23 23 23 23 23 24 24 24 25 25 25 25 25 25 25 25 25 25 25 25 25 25 24 24 24 23 23
30 31 31 32 32 32 31 31 30 29 29 28 27 27 26 26 25 25 25 24 24 24 24 24 24 24 24 24 23 23 23 24 24 24 24 24 24 24 24 24 24 23 23 23 23 23 23 23 23 23 23 23
28 30 30 32 32 32 32 32 33 33 33 32 32 31 30 30 30 29 29 29 28 28 28 28 28 27 27 27 27 27 26 26 26 26 26 26 26 26 26 26 26 25 25 24 24 24 24 24 25 25 25 26
26 28 28 30 30 31 32 32 33 33 34 34 34 34 33 33 33 33 34 34 33 33 33 33 32 32 32 32 32 31 31 31 30 31 31 30 30 30 30 30 30 29 28 28 28 28 28 28 28 28 28 29
Wind_Speed
100 97 94 93 93 92 91 90 88 88 88 88 88 88 89 89 89 88 87 87 87 87 87 87 88 88 88 87 87 87 86 86 85 85 85 85 86 87 88 89 89 89 88 87 86 86 85 85 85 84 84 84
102 101 97 95 96 97 97 96 94 92 91 91 91 91 91 91 91 91 91 91 91 91 91 91 91 91 91 92 92 91 91 91 90 89 89 89 89 89 90 91 92 92 91 90 89 89 89 89 89 88 89 89
103 102 101 99 98 99 100 101 101 99 97 96 95 94 94 94 94 95 95 95 95 95 95 94 94 95 96 96 96 95 95 95 95 94 93 92 92 92 92 93 94 94 94 94 93 93 92 92 91 91 91 91
102 102 102 101 101 101 101 102 104 104 104 102 101 99 98 98 99 100 101 101 100 99 99 99 99 99 99 99 98 98 98 98 98 98 97 96 95 94 94 94 94 95 95 95 95 95 94 93 93 92 92 92
102 103 103 103 102 102 103 103 104 105 105 105 104 103 102 104 104 104 104 104 105 104 103 103 103 103 102 101 100 100 100 100 100 100 99 98 97 96 95 94 94 94 95 95 96 95 94 94 94 94 94 95
101 103 104 104 104 103 103 104 105 106 106 107 107 107 108 109 108 106 105 105 105 105 105 105 105 104 104 103 102 101 101 100 100 100 99 98 97 96 96 96 95 95 95 96 97 97 96 96 97 97 98 98
98 101 103 104 105 105 105 106 106 107 108 110 111 111 111 109 107 106 105 105 105 105 105 105 105 105 105 104 104 103 102 102 100 99 98 97 97 97 97 97 96 96 96 97 97 98 98 99 100 100 100 101
93 96 99 102 104 106 107 108 109 109 109 109 109 108 107 106 106 106 105 105 106 106 106 106 107 107 107 107 106 105 104 102 99 97 96 97 97 97 98 98 98 98 98 98 98 98 99 100 101 102 103 104
89 92 94 97 100 102 104 107 109 110 111 111 109 108 106 105 105 105 106 107 107 107 107 107 107 108 109 109 109 108 105 102 100 99 98 97 98 98 98 99 100 100 100 100 101 102 103 104 105 106 106 107
88 89 91 94 96 98 100 102 104 107 109 110 110 110 109 107 106 105 105 106 106 106 106 105 106 107 109 109 109 108 105 103 102 102 101 101 100 100 100 101 101 102 103 104 104 105 106 107 107 107 107 107
89 89 90 92 94 96 98 99 101 102 104 106 107 108 108 108 108 107 106 105 105 105 105 104 105 105 106 107 107 106 105 105 105 105 105 105 104 103 103 103 103 104 105 106 106 107 107 106 106 106 106 107
90 90 91 91 92 94 96 98 100 101 102 104 105 106 106 106 107 108 108 107 106 106 107 107 108 109 109 109 109 108 108 108 107 107 107 107 107 107 107 106 106 107 107 108 108 108 108 108 108 108 109 109
92 92 93 93 93 94 96 97 99 101 102 103 104 105 105 105 106 107 108 108 108 108 109 109 110 112 113 113 113 113 113 112 111 110 110 110 110 110 110 110 110 110 110 110 110 110 110 110 110 111 111 111
95 95 95 96 96 97 97 98 98 100 101 102 103 104 104 105 105 106 107 108 109 109 110 110 111 112 113 114 114 115 115 115 114 114 114 114 113 113 113 113 113 113 113 113 112 112 112 112 112 112 113 113
98 98 99 99 99 100 100 100 100 100 100 101 101 102 103 104 105 106 107 108 108 109 110 111 112 113 114 114 115 115 115 115 116 116 116 116 116 116 116 116 116 116 116 115 115 115 115 115 115 115 115 115
100 101 101 102 102 102 102 102 102 102 102 101 101 101 102 102 103 104 106 107 108 109 110 111 112 113 114 115 115 116 116 116 116 117 117 117 117 117 117 117 117 117 117 118 118 118 118 118 118 119 119 119
103 104 104 104 104 104 104 104 104 104 104 104 104 103 103 103 103 103 104 106 107 108 109 111 112 113 113 114 115 116 116 117 117 117 118 118 118 118 118 119 119 119 120 120 120 121 121 122 122 123 123 124
107 107 107 107 106 106 106 105 105 105 106 106 106 106 106 105 105 105 106 107 108 108 109 110 111 112 113 114 115 116 116 117 118 118 119 119 120 120 120 121 121 122 122 123 124 124 125 125 125 126 126 126
109 110 110 110 109 109 108 108 108 107 108 108 108 109 109 109 109 109 109 110 110 111 111 112 112 113 113 114 115 116 116 117 118 119 119 120 121 121 122 122 123 124 124 125 125 126 126 127 127 127 127 127
112 112 112 112 112 112 111 111 111 110 110 111 111 112 112 112 112 112 112 113 113 114 114 114 114 114 115 115 116 116 117 117 118 118 119 119 120 120 120 121 122 123 123 124 124 124 125 125 126 126 126 126
114 114 114 114 114 114 114 114 114 114 114 114 114 115 115 115 115 115 115 115 116 117 117 117 117 117 117 117 118 118 119 119 119 119 119 119 119 119 119 120 120 121 121 122 122 122 123 123 124 124 124 124
116 116 116 116 116 116 116 117 117 117 117 117 117 117 118 118 118 118 118 118 118 119 119 119 119 119 120 120 120 121 121 121 121 121 121 121 121 121 121 121 121 121 121 121 122 122 122 123 123 123 123 124
117 117 118 118 118 118 119 119 119 119 119 119 119 119 120 120 120 120 121 121 121 121 121 122 122 122 122 122 122 123 123 123 123 123 123 123 123 123 123 123 124 124 124 123 124 124 124 124 124 125 125 125
118 119 119 120 120 120 120 120 120 121 121 121 121 121 121 121 122 122 122 123 123 123 124 124 124 124 124 124 125 124 125 125 125 125 125 125 125 125 125 125 126 126 126 126 126 126 127 127 127 127 128 128
118 119 120 121 121 121 120 121 121 121 121 122 122 122 122 122 123 123 123 124 124 125 125 125 126 126 126 126 127 127 127 127 127 127 127 127 127 127 127 127 128 128 128 128 128 128 129 129 129 130 130 130
117 118 119 120 120 120 120 120 121 121 121 121 121 122 122 123 123 124 124 125 125 126 126 127 127 127 127 128 128 128 129 129 129 129 129 129 129 130 130 130 130 130 130 130 130 131 131 131 132 132 132 133
116 117 118 119 119 120 120 121 121 122 122 122 122 123 123 124 124 125 126 126 127 127 128 128 129 129 129 130 130 130 131 131 131 131 132 132 132 132 132 132 132 132 133 132 132 133 133 133 134 134 134 134
115 116 117 118 118 119 120 120 121 122 123 123 123 124 125 125 126 126 127 127 128 129 129 130 130 131 131 131 132 132 132 133 133 133 134 134 134 134 134 134 134 135 135 135 134 134 134 135 135 136 136 136
113 114 115 116 117 117 118 119 120 121 121 122 123 124 124 125 126 126 127 128 129 129 130 130 131 131 132 132 133 133 133 134 134 135 135 135 135 135 135 135 136 136 136 136 136 136 135 136 136 136 136 136
112 113 114 115 115 116 116 117 117 118 119 120 121 122 123 124 124 125 126 127 128 128 129 130 130 131 131 132 133 133 133 134 134 135 135 135 135 135 135 135 135 136 136 136 136 136 136 136 135 135 135 135
112 112 113 113 114 114 115 115 116 117 117 118 119 120 121 122 123 123 124 125 126 126 127 128 128 129 130 131 131 132 133 133 133 134 134 134 134 134 134 134 134 135 135 135 135 136 135 135 135 135 134 134
Wind_Direction
248 249 249 250 251 251 250 248 247 247 248 249 249 250 251 252 254 255 254 253 254 255 256 258 259 261 262 264 266 267 267 268 269 269 269 269 269 268 268 268 268 268 269 269 270 270 270 269 268 268 268 268
248 249 250 251 252 253 253 252 250 249 249 250 251 251 252 253 254 255 255 255 255 255 256 257 258 260 262 263 265 266 266 267 268 269 269 269 268 268 268 268 268 268 268 269 269 270 270 269 269 268 268 268
249 249 250 252 253 254 254 254 253 252 252 252 252 253 253 254 255 256 256 256 256 256 257 257 258 259 261 263 264 265 265 266 267 268 269 269 268 267 266 267 267 267 268 269 269 269 270 269 269 269 269 269
250 250 251 252 253 254 254 254 254 254 254 254 255 255 255 256 258 258 257 257 257 258 258 259 260 261 262 263 264 265 265 267 267 268 269 269 268 266 265 266 266 267 267 268 269 269 269 269 269 269 270 270
251 251 251 251 252 253 253 254 254 254 255 255 256 256 257 259 261 261 259 258 258 258 259 260 261 262 262 263 264 265 266 267 268 269 269 268 267 265 264 265 265 266 266 267 267 268 268 268 269 270 270 271
253 252 252 252 252 252 253 253 254 254 255 256 257 257 259 260 261 261 259 259 259 259 260 261 261 262 262 263 264 265 266 267 268 268 268 267 266 265 264 264 265 265 266 266 266 266 267 268 269 269 270 271
254 254 253 253 253 253 253 253 254 255 255 256 257 258 259 259 259 259 259 259 260 260 261 261 261 262 262 263 264 265 267 267 267 267 267 266 266 265 264 264 265 265 266 266 267 267 267 268 269 269 270 271
255 255 255 254 254 254 254 254 254 254 255 256 256 257 257 258 258 258 259 259 260 261 261 262 262 262 263 263 264 266 266 266 266 266 266 266 266 265 265 264 265 266 266 267 267 268 268 269 269 269 270 270
257 257 256 256 255 255 255 255 255 255 255 255 256 257 257 257 258 258 259 259 260 261 261 262 263 263 263 264 264 265 265 265 265 265 266 266 266 265 265 265 265 266 266 267 267 268 268 269 269 270 270 270
258 258 258 258 257 257 257 257 256 256 256 257 257 257 258 257 258 258 259 259 259 260 261 261 262 263 263 263 264 264 263 264 265 266 266 267 266 266 265 265 265 266 266 267 267 268 269 269 270 270 270 271
258 259 259 259 259 259 259 259 258 258 258 258 259 259 259 258 258 259 259 259 259 259 259 260 261 261 262 262 262 262 263 264 265 266 267 268 268 268 267 267 267 267 268 268 269 270 270 271 271 271 272 272
257 258 259 259 260 260 260 260 260 260 260 260 260 260 260 260 260 260 260 260 260 260 260 260 260 261 262 262 263 263 264 265 266 267 268 269 269 269 269 269 269 270 270 271 271 272 272 272 273 273 274 274
256 257 258 258 259 259 260 260 260 260 260 260 261 261 261 261 262 262 262 262 262 262 262 262 262 262 262 263 264 264 265 266 267 268 269 269 270 270 270 270 270 270 270 271 271 271 272 272 273 273 273 274
256 257 257 258 258 258 259 259 259 260 260 261 261 261 262 262 262 263 263 263 263 263 263 263 263 263 264 264 264 265 266 266 267 268 268 269 269 269 269 270 270 270 270 270 270 270 270 271 271 271 271 271
256 257 257 257 257 258 258 258 259 259 260 261 261 262 262 262 262 263 263 263 264 264 264 264 264 264 264 265 265 265 266 266 266 267 267 267 268 268 268 269 269 269 269 269 269 269 270 270 270 270 270 270
256 257 257 257 258 258 258 258 259 259 260 260 261 261 262 262 263 263 263 263 264 264 264 264 264 264 264 265 265 265 265 266 266 266 267 267 267 267 267 268 268 268 268 268 269 269 269 269 269 269 270 270
256 257 257 257 258 258 258 258 259 259 260 260 261 261 262 262 262 263 263 263 263 263 263 263 263 263 264 264 264 264 265 265 266 266 266 266 266 267 267 267 267 267 268 268 268 269 269 269 270 270 270 271
256 256 257 257 257 258 258 259 259 259 260 260 261 261 262 262 262 262 262 262 262 262 262 262 263 263 263 263 264 264 265 265 265 265 266 266 266 266 266 267 267 268 268 268 269 269 270 270 270 271 271 271
257 257 257 257 258 258 258 259 259 259 260 260 261 261 261 261 262 262 262 262 263 263 263 263 264 264 264 264 264 265 265 265 265 265 266 266 266 267 267 267 268 268 268 269 269 269 270 270 270 271 271 271
257 258 258 258 258 258 259 259 259 260 260 260 260 261 261 261 262 262 262 262 263 264 264 265 265 265 265 265 265 265 266 266 266 266 266 266 267 267 267 267 268 268 268 268 269 269 269 270 270 270 270 271
258 258 258 259 259 259 259 259 259 259 260 260 260 261 261 261 262 262 262 263 263 264 264 265 265 265 265 266 266 266 266 266 266 266 267 267 267 267 267 267 268 268 268 268 269 269 269 270 270 270 270 271
258 259 259 260 260 260 260 260 260 260 260 260 260 261 261 261 262 262 262 262 263 263 264 264 265 265 265 265 266 266 266 266 266 266 267 267 267 267 267 267 268 268 268 268 269 269 269 270 270 270 271 271
259 259 260 260 260 260 260 260 260 260 260 261 261 261 262 262 262 262 262 262 263 263 264 264 264 265 265 265 266 266 266 266 267 267 267 267 267 267 267 267 268 268 268 268 269 269 269 270 270 270 270 271
259 259 260 260 260 260 261 261 261 261 261 261 261 262 262 262 262 263 263 263 263 263 264 264 264 265 265 265 265 266 266 267 267 267 267 267 267 267 268 268 268 268 268 268 269 269 269 269 270 270 270 271
259 259 259 260 260 260 261 261 261 261 261 262 262 262 262 262 263 263 263 263 264 264 264 264 265 265 265 266 266 266 266 266 267 267 267 268 268 268 268 268 268 268 268 269 269 269 269 269 270 270 270 271
258 259 259 260 260 260 261 261 261 261 261 262 262 262 262 263 263 263 263 264 264 264 265 265 265 265 266 266 266 266 267 267 267 267 268 268 268 268 268 268 268 268 269 269 269 269 269 270 270 270 270 271
258 258 259 259 260 260 260 261 261 261 261 262 262 262 262 263 263 263 263 264 264 264 265 265 265 266 266 266 266 267 267 267 267 267 267 268 268 268 268 269 269 269 269 269 269 269 270 270 270 271 271 271
257 258 258 259 259 260 260 261 261 261 261 262 262 262 262 263 263 263 264 264 264 265 265 265 266 266 266 266 266 267 267 267 267 268 268 268 268 268 268 269 269 269 269 269 269 270 270 270 271 271 271 272
257 257 258 258 259 259 260 260 261 261 262 262 262 262 263 263 263 264 264 264 265 265 265 266 266 266 266 266 267 267 267 267 268 268 268 268 268 268 269 269 269 269 269 270 270 270 270 270 271 271 271 272
257 257 257 258 258 259 259 260 261 261 261 262 262 262 262 263 263 263 264 264 264 265 265 265 266 266 266 267 267 267 267 267 268 268 268 268 268 269 269 269 269 269 270 270 270 270 270 270 270 271 271 271
257 257 258 258 258 259 259 260 260 261 261 261 262 262 262 262 263 263 263 264 264 264 265 265 265 266 266 266 267 267 267 267 267 268 268 268 268 269 269 269 269 269 269 270 270 270 270 270 270 270 270 270